NIGCOMSAT 1R

Last updated on Jan. 29, 2020, 4:37 a.m. UTC

1 38014U 11077A   20028.86677457  .00000144  00000-0  00000-0 0  9993
2 38014   0.0141 299.4230 0003686  94.5553  88.1224  1.00270158 29580
UTC
Height (km)
Latitude
Longitude
Inclination
Orbital Period
UTC large
Height (km)
Speed (km/s)
/
Latitude / Longitude
Inclination (degrees)
Orbital Period (minutes)
Azimuth
Elevation
Range (km)
Doppler Factor
iOS Compass Heading
iOS Angle

Next 30 passes for location: Hong Kong

Rise time Rise Azimuth (degrees) Set time Set Azimuth (degrees) Duration Max altitude (degrees)

No matching passes for this satellites